contact:dominique.lefevre@mio.osupytheas.fr, maurice.libes@osupytheas.fr, didier.mallarino@osupytheas.fr
Project:EMSO http://www.emso-fr.org/EMSO-France
Depth: 2436.0 m
Title:EMSO Ligure Ouest : Data MII capteur AQUADOPP
Date,Latitude,Longitude,X_East,Y_North,Z_Up,Amplitude_X,Amplitude_Y,Amplitude_Z,Batterie,SoundSpeed,Heading,Pitch,Roll,Pressure,TIS,Speed,Direction
, degrees North, degrees East, m.s-1, m.s-1,m.s-1, 1, 1, 1, Volt, m.s-1, degree, degree, degree, dbar, degree_C, m.s-1, degree
2022-03-01T00:04:03,42.805,6.029,0.022,-0.027,-0.001,104.0,105.0,102.0,13.4,1505.2,323.3,-0.8,1.8,2470.644,13.28,0.034,140.8
2022-03-01T00:07:03,42.805,6.029,0.011,-0.013,-0.012,104.0,103.0,102.0,13.4,1505.2,325.4,-0.8,1.8,2470.686,13.28,0.017,139.8
2022-03-01T00:10:03,42.805,6.029,0.026,-0.023,-0.015,104.0,103.0,102.0,13.4,1505.2,324.7,-0.7,1.8,2470.634,13.28,0.034,131.5
2022-03-01T00:13:03,42.805,6.029,-0.001,-0.015,0.01,102.0,104.0,102.0,13.4,1505.2,327.4,-0.8,1.8,2470.627,13.28,0.015,183.8
2022-03-01T00:16:03,42.805,6.029,0.028,-0.01,-0.01,102.0,104.0,101.0,13.4,1505.2,324.4,-0.8,1.8,2470.63,13.28,0.029,109.6
2022-03-01T00:19:03,42.805,6.029,0.005,0.0,0.001,104.0,101.0,103.0,13.4,1505.2,322.9,-0.8,1.8,2470.635,13.28,0.005,90.0
2022-03-01T00:22:03,42.805,6.029,0.003,-0.015,-0.016,105.0,102.0,101.0,13.4,1505.2,330.9,-0.8,1.8,2470.598,13.28,0.015,168.7
2022-03-01T00:25:03,42.805,6.029,0.005,-0.036,-0.028,103.0,104.0,101.0,13.4,1505.2,329.4,-0.8,1.8,2470.626,13.28,0.036,172.1
2022-03-01T00:28:03,42.805,6.029,0.019,-0.015,0.0,102.0,103.0,101.0,13.4,1505.2,323.7,-0.7,1.9,2470.628,13.28,0.024,128.3
2022-03-01T00:31:03,42.805,6.029,0.002,-0.009,-0.01,102.0,104.0,102.0,13.3,1505.2,329.2,-0.8,1.8,2470.61,13.28,0.009,167.5
2022-03-01T00:34:03,42.805,6.029,0.001,-0.023,0.0,104.0,104.0,101.0,13.4,1505.2,330.0,-0.7,1.8,2470.624,13.28,0.023,177.5
2022-03-01T00:37:03,42.805,6.029,-0.008,-0.02,-0.007,103.0,102.0,101.0,13.3,1505.2,330.1,-0.8,1.8,2470.627,13.28,0.021,201.8
2022-03-01T00:40:03,42.805,6.029,0.025,-0.008,-0.033,104.0,102.0,102.0,13.4,1505.2,325.1,-0.7,1.8,2470.583,13.28,0.026,107.7
2022-03-01T00:43:03,42.805,6.029,0.008,-0.008,0.026,105.0,101.0,102.0,13.4,1505.2,325.2,-0.8,1.8,2470.572,13.28,0.011,135.0
2022-03-01T00:46:03,42.805,6.029,0.012,0.0,-0.009,103.0,103.0,103.0,13.4,1505.2,332.2,-0.7,1.8,2470.599,13.28,0.012,90.0
2022-03-01T00:49:03,42.805,6.029,0.006,-0.028,-0.012,103.0,102.0,102.0,13.3,1505.2,332.0,-0.8,1.8,2470.605,13.28,0.028,167.9
2022-03-01T00:52:03,42.805,6.029,0.019,-0.017,-0.004,102.0,103.0,102.0,13.4,1505.2,330.3,-0.7,1.8,2470.598,13.28,0.025,131.8
2022-03-01T00:55:03,42.805,6.029,0.014,-0.013,-0.027,104.0,103.0,102.0,13.4,1505.2,330.2,-0.7,1.9,2470.602,13.28,0.019,132.9
2022-03-01T00:58:03,42.805,6.029,0.022,-0.022,-0.012,104.0,102.0,102.0,13.4,1505.2,329.3,-0.7,1.8,2470.63,13.28,0.031,135.0
2022-03-01T01:04:03,42.805,6.029,0.007,-0.031,-0.01,103.0,103.0,102.0,13.4,1505.2,325.9,-0.7,1.8,2470.629,13.28,0.031,167.3
2022-03-01T01:07:03,42.805,6.029,-0.001,-0.017,-0.028,105.0,104.0,101.0,13.4,1505.2,328.1,-0.8,1.8,2470.613,13.28,0.017,183.4
2022-03-01T01:10:03,42.805,6.029,0.022,-0.004,-0.005,104.0,101.0,102.0,13.3,1505.2,327.9,-0.8,1.8,2470.625,13.28,0.022,100.3
2022-03-01T01:13:03,42.805,6.029,0.004,-0.001,0.017,103.0,104.0,101.0,13.3,1505.2,328.1,-0.8,1.8,2470.668,13.28,0.004,104.0
2022-03-01T01:16:03,42.805,6.029,0.005,-0.021,0.017,103.0,102.0,101.0,13.3,1505.2,325.6,-0.8,1.9,2470.63,13.28,0.021,166.6
2022-03-01T01:19:03,42.805,6.029,0.035,-0.026,0.0,103.0,103.0,102.0,13.3,1505.2,327.5,-0.7,1.8,2470.6,13.28,0.043,126.6
2022-03-01T01:22:03,42.805,6.029,0.018,-0.02,0.005,104.0,102.0,101.0,13.3,1505.2,328.6,-0.8,1.8,2470.635,13.28,0.026,138.0
2022-03-01T01:25:03,42.805,6.029,0.023,-0.013,-0.015,103.0,103.0,101.0,13.4,1505.2,325.9,-0.7,1.9,2470.637,13.28,0.026,119.5
2022-03-01T01:28:03,42.805,6.029,0.033,-0.013,-0.001,104.0,103.0,102.0,13.4,1505.2,329.7,-0.7,1.8,2470.638,13.28,0.035,111.5
2022-03-01T01:31:03,42.805,6.029,0.014,-0.011,-0.016,104.0,105.0,102.0,13.4,1505.2,329.1,-0.8,1.8,2470.613,13.28,0.017,128.2
2022-03-01T01:34:03,42.805,6.029,0.02,-0.009,-0.04,104.0,104.0,102.0,13.3,1505.2,329.0,-0.8,1.8,2470.608,13.28,0.021,114.2
2022-03-01T01:37:03,42.805,6.029,0.028,-0.029,-0.025,103.0,102.0,103.0,13.4,1505.2,323.5,-0.8,1.8,2470.584,13.28,0.04,136.0
2022-03-01T01:40:03,42.805,6.029,0.02,-0.023,0.005,104.0,104.0,103.0,13.4,1505.2,325.6,-0.7,1.8,2470.605,13.28,0.03,139.0
2022-03-01T01:43:03,42.805,6.029,0.017,-0.015,-0.006,104.0,104.0,101.0,13.3,1505.2,331.2,-0.8,1.8,2470.637,13.28,0.022,131.4
2022-03-01T01:46:03,42.805,6.029,0.004,-0.025,0.012,105.0,105.0,102.0,13.3,1505.2,328.1,-0.8,1.8,2470.618,13.28,0.025,170.9
2022-03-01T01:49:03,42.805,6.029,0.015,-0.029,-0.015,104.0,104.0,101.0,13.3,1505.2,326.0,-0.8,1.8,2470.631,13.28,0.032,152.6
2022-03-01T01:52:03,42.805,6.029,0.016,-0.001,-0.007,104.0,103.0,102.0,13.3,1505.2,332.3,-0.7,1.8,2470.641,13.28,0.016,93.6
2022-03-01T01:55:03,42.805,6.029,0.012,-0.01,0.0,104.0,104.0,101.0,13.4,1505.2,331.7,-0.8,1.8,2470.638,13.28,0.015,129.8
2022-03-01T01:58:03,42.805,6.029,0.02,-0.012,0.03,104.0,104.0,101.0,13.3,1505.2,327.2,-0.7,1.8,2470.65,13.28,0.023,121.0
2022-03-01T02:04:03,42.805,6.029,0.015,-0.02,-0.028,104.0,105.0,102.0,13.4,1505.2,323.6,-0.8,1.8,2470.702,13.28,0.025,143.1
2022-03-01T02:07:03,42.805,6.029,0.02,-0.004,0.0,104.0,104.0,102.0,13.3,1505.2,323.8,-0.8,1.8,2470.68,13.28,0.02,101.3
2022-03-01T02:10:03,42.805,6.029,0.008,-0.013,-0.003,103.0,104.0,102.0,13.4,1505.2,323.5,-0.7,1.8,2470.661,13.28,0.015,148.4
2022-03-01T02:13:03,42.805,6.029,0.015,-0.014,-0.018,105.0,104.0,102.0,13.4,1505.2,329.3,-0.8,1.8,2470.669,13.28,0.02,133.0
2022-03-01T02:16:03,42.805,6.029,0.02,-0.009,-0.02,104.0,103.0,101.0,13.4,1505.2,324.5,-0.8,1.8,2470.703,13.28,0.021,114.2
2022-03-01T02:19:03,42.805,6.029,0.011,-0.006,0.028,105.0,104.0,103.0,13.3,1505.2,329.6,-0.7,1.8,2470.695,13.28,0.012,118.6
2022-03-01T02:22:03,42.805,6.029,0.019,-0.014,0.006,104.0,103.0,102.0,13.4,1505.2,329.4,-0.7,1.8,2470.668,13.28,0.023,126.4
2022-03-01T02:25:03,42.805,6.029,0.017,-0.024,-0.017,104.0,104.0,102.0,13.4,1505.2,324.1,-0.7,1.8,2470.692,13.28,0.029,144.7
2022-03-01T02:28:03,42.805,6.029,0.011,-0.009,-0.009,104.0,104.0,102.0,13.4,1505.2,331.4,-0.8,1.8,2470.667,13.28,0.014,129.3
2022-03-01T02:31:03,42.805,6.029,0.031,-0.009,-0.008,104.0,105.0,102.0,13.4,1505.2,326.5,-0.7,1.8,2470.671,13.28,0.032,106.2
2022-03-01T02:34:03,42.805,6.029,0.021,-0.012,0.009,104.0,103.0,102.0,13.4,1505.2,326.7,-0.8,1.8,2470.697,13.28,0.024,119.7
2022-03-01T02:37:03,42.805,6.029,0.016,-0.021,-0.004,106.0,104.0,103.0,13.3,1505.2,328.0,-0.8,1.8,2470.668,13.28,0.026,142.7
2022-03-01T02:40:03,42.805,6.029,0.038,-0.009,-0.012,104.0,105.0,102.0,13.4,1505.2,325.2,-0.7,1.8,2470.658,13.28,0.039,103.3
2022-03-01T02:43:03,42.805,6.029,-0.004,0.011,-0.007,105.0,105.0,103.0,13.4,1505.2,325.0,-0.8,1.8,2470.695,13.28,0.011,340.0
2022-03-01T02:46:03,42.805,6.029,0.008,-0.026,-0.044,105.0,103.0,103.0,13.4,1505.2,323.8,-0.7,1.8,2470.674,13.28,0.027,162.9
2022-03-01T02:49:03,42.805,6.029,0.005,0.001,-0.008,106.0,104.0,103.0,13.4,1505.2,329.2,-0.8,1.8,2470.694,13.28,0.005,78.7
2022-03-01T02:52:03,42.805,6.029,0.027,-0.018,-0.018,104.0,104.0,102.0,13.4,1505.2,326.0,-0.8,1.8,2470.671,13.28,0.032,123.7
2022-03-01T02:55:03,42.805,6.029,0.037,-0.006,-0.028,104.0,104.0,103.0,13.4,1505.2,324.6,-0.7,1.8,2470.695,13.28,0.037,99.2
2022-03-01T02:58:03,42.805,6.029,0.007,-0.022,0.011,105.0,106.0,102.0,13.4,1505.2,328.2,-0.7,1.8,2470.702,13.28,0.023,162.4
2022-03-01T03:04:03,42.805,6.029,0.007,-0.017,0.013,105.0,104.0,102.0,13.4,1505.2,323.8,-0.8,1.8,2470.724,13.28,0.018,157.6
2022-03-01T03:07:03,42.805,6.029,0.036,-0.001,0.012,104.0,105.0,103.0,13.3,1505.2,328.3,-0.7,1.8,2470.763,13.28,0.036,91.6
2022-03-01T03:10:03,42.805,6.029,0.018,-0.027,0.023,105.0,104.0,103.0,13.3,1505.2,328.3,-0.7,1.8,2470.76,13.28,0.032,146.3
2022-03-01T03:13:03,42.805,6.029,0.016,-0.008,0.001,104.0,105.0,103.0,13.4,1505.2,326.8,-0.7,1.8,2470.74,13.28,0.017,116.6
2022-03-01T03:16:03,42.805,6.029,0.012,-0.027,-0.02,104.0,105.0,102.0,13.4,1505.2,327.3,-0.7,1.8,2470.748,13.28,0.029,156.0
2022-03-01T03:19:03,42.805,6.029,0.033,-0.025,-0.004,103.0,104.0,103.0,13.4,1505.2,327.3,-0.7,1.8,2470.722,13.28,0.041,127.1
2022-03-01T03:22:03,42.805,6.029,0.027,0.008,0.018,104.0,104.0,102.0,13.4,1505.2,326.7,-0.7,1.8,2470.754,13.28,0.028,73.5
2022-03-01T03:25:03,42.805,6.029,0.003,0.0,-0.007,105.0,104.0,103.0,13.3,1505.2,323.6,-0.8,1.8,2470.742,13.28,0.003,90.0
2022-03-01T03:28:03,42.805,6.029,0.011,-0.008,-0.033,105.0,105.0,102.0,13.4,1505.2,324.9,-0.7,1.8,2470.713,13.28,0.013,126.0
2022-03-01T03:31:03,42.805,6.029,0.033,-0.007,0.004,104.0,104.0,103.0,13.4,1505.2,328.1,-0.8,1.8,2470.76,13.28,0.033,102.0
2022-03-01T03:34:03,42.805,6.029,0.024,-0.034,-0.059,104.0,105.0,103.0,13.4,1505.2,330.4,-0.7,1.8,2470.785,13.28,0.041,144.8
2022-03-01T03:37:03,42.805,6.029,0.005,-0.023,0.0,104.0,104.0,102.0,13.4,1505.2,329.3,-0.7,1.9,2470.726,13.28,0.023,167.7
2022-03-01T03:40:03,42.805,6.029,0.025,-0.026,0.0,104.0,105.0,102.0,13.4,1505.2,326.1,-0.7,1.8,2470.769,13.28,0.036,136.1
2022-03-01T03:43:03,42.805,6.029,0.035,-0.011,-0.011,105.0,105.0,102.0,13.4,1505.2,329.3,-0.8,1.8,2470.761,13.28,0.036,107.4
2022-03-01T03:46:03,42.805,6.029,0.011,-0.039,-0.043,105.0,104.0,103.0,13.3,1505.2,325.9,-0.7,1.8,2470.773,13.28,0.04,164.3
2022-03-01T03:49:03,42.805,6.029,0.011,-0.015,-0.039,104.0,104.0,102.0,13.4,1505.2,325.7,-0.8,1.8,2470.749,13.29,0.018,143.7
2022-03-01T03:52:03,42.805,6.029,-0.01,-0.006,-0.006,104.0,103.0,102.0,13.3,1505.2,325.2,-0.7,1.8,2470.787,13.28,0.011,239.0
2022-03-01T03:55:03,42.805,6.029,0.001,0.01,-0.021,104.0,103.0,102.0,13.4,1505.2,325.0,-0.7,1.8,2470.767,13.28,0.01,5.7
2022-03-01T03:58:03,42.805,6.029,0.009,-0.008,-0.019,104.0,104.0,102.0,13.4,1505.2,328.2,-0.7,1.8,2470.771,13.28,0.012,131.6
2022-03-01T04:04:03,42.805,6.029,0.019,-0.015,-0.022,107.0,105.0,101.0,13.4,1505.2,329.3,-0.8,1.8,2470.828,13.28,0.024,128.3
2022-03-01T04:07:03,42.805,6.029,0.011,-0.017,-0.031,105.0,102.0,103.0,13.4,1505.2,324.3,-0.7,1.8,2470.8,13.28,0.02,147.1
2022-03-01T04:10:03,42.805,6.029,-0.007,0.002,-0.012,105.0,104.0,101.0,13.4,1505.2,324.6,-0.8,1.8,2470.842,13.28,0.007,285.9
2022-03-01T04:13:03,42.805,6.029,-0.006,-0.008,0.004,104.0,103.0,103.0,13.4,1505.2,331.4,-0.7,1.8,2470.836,13.28,0.01,216.9
2022-03-01T04:16:03,42.805,6.029,0.007,-0.012,0.0,106.0,103.0,102.0,13.4,1505.2,324.9,-0.8,1.8,2470.797,13.28,0.013,149.7
2022-03-01T04:19:03,42.805,6.029,0.014,-0.027,0.001,103.0,104.0,102.0,13.4,1505.2,329.3,-0.8,1.8,2470.814,13.28,0.03,152.6
2022-03-01T04:22:03,42.805,6.029,-0.014,-0.005,0.0,103.0,103.0,102.0,13.4,1505.2,328.3,-0.8,1.8,2470.823,13.28,0.014,250.4
2022-03-01T04:25:03,42.805,6.029,-0.013,-0.015,-0.028,103.0,103.0,101.0,13.4,1505.2,330.7,-0.7,1.8,2470.816,13.28,0.019,220.9
2022-03-01T04:28:03,42.805,6.029,0.0,-0.013,-0.012,102.0,104.0,103.0,13.4,1505.2,326.1,-0.7,1.8,2470.802,13.28,0.013,180.0
2022-03-01T04:31:03,42.805,6.029,0.021,-0.01,0.039,105.0,103.0,102.0,13.3,1505.2,329.4,-0.7,1.8,2470.814,13.28,0.023,115.5
2022-03-01T04:34:03,42.805,6.029,0.022,-0.023,-0.042,104.0,103.0,101.0,13.4,1505.2,325.6,-0.7,1.8,2470.794,13.29,0.031,136.3
2022-03-01T04:37:03,42.805,6.029,-0.006,-0.019,-0.022,104.0,104.0,101.0,13.4,1505.2,326.3,-0.8,1.8,2470.815,13.29,0.019,197.5
2022-03-01T04:40:03,42.805,6.029,0.003,-0.015,-0.016,104.0,103.0,102.0,13.4,1505.2,327.6,-0.7,1.8,2470.856,13.29,0.015,168.7
2022-03-01T04:43:03,42.805,6.029,0.001,0.002,-0.038,104.0,105.0,102.0,13.3,1505.2,329.7,-0.8,1.8,2470.825,13.29,0.002,26.6
2022-03-01T04:46:03,42.805,6.029,0.019,-0.014,-0.009,105.0,104.0,102.0,13.4,1505.2,326.9,-0.7,1.8,2470.809,13.29,0.023,126.4
2022-03-01T04:49:03,42.805,6.029,0.028,-0.033,-0.002,104.0,103.0,102.0,13.4,1505.2,327.6,-0.7,1.8,2470.846,13.29,0.043,139.7
2022-03-01T04:52:03,42.805,6.029,0.009,-0.007,0.007,105.0,103.0,102.0,13.4,1505.2,328.7,-0.7,1.8,2470.807,13.29,0.011,127.9
2022-03-01T04:55:03,42.805,6.029,0.003,-0.027,-0.032,104.0,105.0,102.0,13.3,1505.2,327.0,-0.8,1.8,2470.853,13.29,0.027,173.7
2022-03-01T04:58:03,42.805,6.029,0.006,-0.003,0.0,104.0,105.0,102.0,13.4,1505.2,322.6,-0.7,1.8,2470.869,13.29,0.006,116.6
2022-03-01T05:04:03,42.805,6.029,0.007,-0.013,0.009,104.0,103.0,102.0,13.4,1505.2,326.3,-0.7,1.8,2470.872,13.28,0.014,151.7
2022-03-01T05:07:03,42.805,6.029,0.002,-0.031,0.004,103.0,105.0,101.0,13.4,1505.2,326.1,-0.7,1.8,2470.855,13.28,0.031,176.3
2022-03-01T05:10:03,42.805,6.029,0.0,-0.008,0.003,104.0,104.0,102.0,13.3,1505.2,328.3,-0.8,1.8,2470.898,13.28,0.008,180.0
2022-03-01T05:13:03,42.805,6.029,0.029,-0.01,-0.005,106.0,103.0,101.0,13.3,1505.2,325.6,-0.8,1.8,2470.858,13.28,0.03,109.0
2022-03-01T05:16:03,42.805,6.029,0.0,-0.01,-0.007,104.0,104.0,103.0,13.4,1505.2,329.7,-0.8,1.8,2470.867,13.28,0.01,180.0
2022-03-01T05:19:03,42.805,6.029,0.006,-0.019,-0.051,105.0,102.0,101.0,13.3,1505.2,330.0,-0.7,1.8,2470.875,13.28,0.019,162.5
2022-03-01T05:22:03,42.805,6.029,-0.003,0.0,-0.028,105.0,102.0,102.0,13.4,1505.2,323.7,-0.7,1.8,2470.892,13.28,0.003,270.0
2022-03-01T05:25:03,42.805,6.029,0.002,-0.014,-0.01,104.0,103.0,102.0,13.4,1505.2,331.0,-0.7,1.9,2470.871,13.28,0.014,171.9
2022-03-01T05:28:03,42.805,6.029,0.017,-0.018,0.009,102.0,103.0,102.0,13.4,1505.2,324.3,-0.8,1.8,2470.856,13.29,0.024,136.6
2022-03-01T05:31:03,42.805,6.029,0.025,-0.009,-0.009,103.0,104.0,102.0,13.4,1505.2,324.8,-0.8,1.8,2470.89,13.29,0.026,109.8
2022-03-01T05:34:03,42.805,6.029,-0.002,-0.009,-0.012,103.0,103.0,101.0,13.4,1505.2,328.1,-0.8,1.8,2470.879,13.28,0.009,192.5
2022-03-01T05:37:03,42.805,6.029,0.007,-0.016,-0.003,103.0,103.0,102.0,13.3,1505.2,325.0,-0.7,1.8,2470.891,13.29,0.017,156.4
2022-03-01T05:40:03,42.805,6.029,0.003,-0.013,-0.006,102.0,103.0,102.0,13.4,1505.2,324.4,-0.8,1.8,2470.871,13.29,0.013,167.0
2022-03-01T05:43:03,42.805,6.029,0.002,-0.01,-0.017,102.0,103.0,101.0,13.3,1505.2,324.1,-0.8,1.8,2470.869,13.29,0.01,168.7
2022-03-01T05:46:03,42.805,6.029,0.011,-0.023,-0.014,103.0,102.0,102.0,13.3,1505.2,323.5,-0.7,1.8,2470.858,13.29,0.025,154.4
2022-03-01T05:49:03,42.805,6.029,0.022,0.002,0.001,103.0,103.0,102.0,13.4,1505.2,323.9,-0.8,1.8,2470.828,13.29,0.022,84.8
2022-03-01T05:52:03,42.805,6.029,-0.002,0.006,0.005,104.0,102.0,101.0,13.3,1505.2,326.4,-0.8,1.8,2470.877,13.29,0.006,341.6
2022-03-01T05:55:03,42.805,6.029,0.008,-0.003,0.009,104.0,104.0,101.0,13.3,1505.2,331.0,-0.8,1.8,2470.862,13.29,0.008,110.6
2022-03-01T05:58:03,42.805,6.029,0.011,-0.019,-0.012,102.0,104.0,101.0,13.4,1505.2,324.8,-0.8,1.8,2470.848,13.29,0.021,149.9
2022-03-01T06:04:03,42.805,6.029,0.024,-0.022,-0.014,104.0,102.0,101.0,13.4,1505.2,329.0,-0.7,1.9,2470.888,13.28,0.032,132.5
2022-03-01T06:07:03,42.805,6.029,0.0,-0.009,0.002,103.0,103.0,101.0,13.3,1505.2,329.0,-0.8,1.8,2470.877,13.28,0.009,180.0
2022-03-01T06:10:03,42.805,6.029,-0.011,-0.008,-0.005,105.0,103.0,100.0,13.4,1505.2,326.4,-0.7,1.8,2470.896,13.28,0.013,234.0
2022-03-01T06:13:03,42.805,6.029,0.001,-0.012,0.005,102.0,104.0,101.0,13.3,1505.2,331.2,-0.8,1.8,2470.911,13.28,0.012,175.2
2022-03-01T06:16:03,42.805,6.029,0.014,-0.012,-0.035,103.0,103.0,102.0,13.4,1505.2,327.2,-0.8,1.8,2470.889,13.28,0.018,130.6
2022-03-01T06:19:03,42.805,6.029,0.009,-0.015,-0.023,101.0,102.0,101.0,13.4,1505.2,326.5,-0.7,1.8,2470.894,13.28,0.017,149.0
2022-03-01T06:22:03,42.805,6.029,-0.023,0.0,-0.008,103.0,102.0,101.0,13.3,1505.2,326.7,-0.7,1.8,2470.838,13.29,0.023,270.0
2022-03-01T06:25:03,42.805,6.029,0.005,-0.003,-0.006,103.0,103.0,101.0,13.3,1505.2,327.4,-0.8,1.8,2470.866,13.28,0.005,121.0
2022-03-01T06:28:03,42.805,6.029,-0.002,0.006,-0.041,102.0,103.0,102.0,13.4,1505.2,324.7,-0.7,1.8,2470.879,13.29,0.006,341.6
2022-03-01T06:31:03,42.805,6.029,-0.01,0.004,0.006,103.0,102.0,102.0,13.3,1505.2,327.8,-0.8,1.8,2470.856,13.29,0.01,291.8
2022-03-01T06:34:03,42.805,6.029,-0.011,-0.012,-0.007,104.0,102.0,101.0,13.4,1505.2,328.9,-0.7,1.8,2470.876,13.28,0.016,222.5
2022-03-01T06:37:03,42.805,6.029,0.019,-0.021,-0.006,103.0,103.0,101.0,13.4,1505.2,328.1,-0.7,1.8,2470.905,13.29,0.028,137.9
2022-03-01T06:40:03,42.805,6.029,0.0,0.004,-0.002,103.0,103.0,101.0,13.4,1505.2,330.1,-0.8,1.8,2470.854,13.29,0.004,0.0
2022-03-01T06:43:03,42.805,6.029,0.022,-0.01,0.017,103.0,102.0,101.0,13.4,1505.2,325.9,-0.8,1.8,2470.896,13.29,0.024,114.4
2022-03-01T06:46:03,42.805,6.029,0.002,-0.019,-0.004,103.0,103.0,101.0,13.3,1505.2,330.1,-0.7,1.8,2470.86,13.28,0.019,174.0
2022-03-01T06:49:03,42.805,6.029,0.015,-0.005,-0.008,102.0,104.0,103.0,13.4,1505.2,328.7,-0.7,1.8,2470.88,13.28,0.015,108.4
2022-03-01T06:52:03,42.805,6.029,0.012,-0.012,0.013,103.0,102.0,102.0,13.4,1505.2,328.3,-0.7,1.8,2470.892,13.29,0.016,135.0
2022-03-01T06:55:03,42.805,6.029,0.005,-0.008,-0.018,103.0,106.0,102.0,13.3,1505.2,331.5,-0.8,1.8,2470.824,13.28,0.009,148.0
2022-03-01T06:58:03,42.805,6.029,0.015,-0.003,-0.007,106.0,103.0,102.0,13.3,1505.2,325.0,-0.8,1.8,2470.886,13.28,0.015,101.3
2022-03-01T07:04:03,42.805,6.029,0.002,-0.021,-0.015,104.0,105.0,101.0,13.3,1505.2,325.7,-0.8,1.8,2470.916,13.28,0.021,174.6
2022-03-01T07:07:03,42.805,6.029,0.017,-0.031,-0.011,103.0,103.0,102.0,13.3,1505.2,329.3,-0.8,1.8,2470.908,13.28,0.035,151.3
2022-03-01T07:10:03,42.805,6.029,0.0,-0.01,-0.001,103.0,102.0,102.0,13.3,1505.2,323.6,-0.7,1.8,2470.895,13.28,0.01,180.0
2022-03-01T07:13:03,42.805,6.029,0.021,-0.002,-0.009,103.0,103.0,101.0,13.4,1505.2,327.8,-0.8,1.8,2470.891,13.28,0.021,95.4
2022-03-01T07:16:03,42.805,6.029,0.005,-0.002,0.02,103.0,104.0,101.0,13.4,1505.2,325.0,-0.7,1.8,2470.905,13.28,0.005,111.8
2022-03-01T07:19:03,42.805,6.029,0.024,0.0,0.01,101.0,105.0,101.0,13.4,1505.2,328.3,-0.8,1.8,2470.909,13.28,0.024,90.0
2022-03-01T07:22:03,42.805,6.029,0.029,0.002,0.005,103.0,104.0,102.0,13.4,1505.2,325.9,-0.7,1.8,2470.889,13.28,0.029,86.1
2022-03-01T07:25:03,42.805,6.029,0.019,-0.027,-0.043,103.0,102.0,102.0,13.4,1505.2,332.2,-0.8,1.8,2470.877,13.28,0.033,144.9
2022-03-01T07:28:03,42.805,6.029,0.012,0.001,0.005,103.0,103.0,102.0,13.3,1505.2,329.3,-0.7,1.8,2470.901,13.28,0.012,85.2
2022-03-01T07:31:03,42.805,6.029,0.009,-0.015,-0.013,103.0,102.0,101.0,13.4,1505.2,326.1,-0.8,1.8,2470.863,13.28,0.017,149.0
2022-03-01T07:34:03,42.805,6.029,0.004,-0.009,-0.006,104.0,102.0,102.0,13.3,1505.2,326.7,-0.8,1.8,2470.899,13.28,0.009,156.0
2022-03-01T07:37:03,42.805,6.029,-0.001,0.005,-0.017,103.0,102.0,103.0,13.4,1505.2,331.6,-0.8,1.8,2470.876,13.28,0.005,348.7
2022-03-01T07:40:03,42.805,6.029,-0.013,0.01,0.027,101.0,101.0,102.0,13.3,1505.2,323.7,-0.8,1.8,2470.895,13.28,0.016,307.6
2022-03-01T07:43:03,42.805,6.029,0.029,0.007,0.017,102.0,102.0,102.0,13.4,1505.2,328.3,-0.7,1.8,2470.867,13.28,0.029,76.4
2022-03-01T07:46:03,42.805,6.029,0.027,-0.017,0.009,102.0,103.0,101.0,13.4,1505.2,329.1,-0.7,1.8,2470.89,13.28,0.031,122.2
2022-03-01T07:49:03,42.805,6.029,0.026,-0.003,0.002,103.0,103.0,100.0,13.3,1505.2,326.9,-0.8,1.8,2470.848,13.28,0.026,96.6
2022-03-01T07:52:03,42.805,6.029,0.015,-0.02,0.003,103.0,101.0,102.0,13.4,1505.2,326.5,-0.8,1.8,2470.849,13.28,0.025,143.1
2022-03-01T07:55:03,42.805,6.029,-0.004,0.01,-0.008,102.0,103.0,100.0,13.3,1505.2,328.9,-0.7,1.8,2470.881,13.28,0.01,338.2
2022-03-01T07:58:03,42.805,6.029,0.008,0.014,0.037,102.0,102.0,101.0,13.4,1505.2,326.1,-0.8,1.8,2470.85,13.28,0.016,29.7
2022-03-01T08:04:03,42.805,6.029,0.019,0.0,0.008,102.0,102.0,101.0,13.3,1505.2,324.7,-0.8,1.8,2470.919,13.28,0.019,90.0
2022-03-01T08:07:03,42.805,6.029,-0.005,-0.018,-0.027,102.0,102.0,101.0,13.4,1505.2,330.6,-0.8,1.8,2470.887,13.28,0.018,195.5
2022-03-01T08:10:03,42.805,6.029,-0.001,-0.005,-0.011,103.0,103.0,100.0,13.3,1505.2,326.2,-0.8,1.8,2470.951,13.28,0.005,191.3
2022-03-01T08:13:03,42.805,6.029,0.018,-0.01,-0.015,102.0,102.0,103.0,13.3,1505.2,326.9,-0.7,1.8,2470.879,13.28,0.02,119.1
2022-03-01T08:16:03,42.805,6.029,0.013,-0.013,0.026,104.0,104.0,101.0,13.3,1505.2,329.8,-0.7,1.8,2470.887,13.28,0.018,135.0
2022-03-01T08:19:03,42.805,6.029,0.011,-0.001,0.009,102.0,103.0,103.0,13.4,1505.2,323.7,-0.8,1.9,2470.83,13.28,0.011,95.2
2022-03-01T08:22:03,42.805,6.029,0.038,-0.004,-0.011,105.0,103.0,102.0,13.4,1505.2,327.4,-0.8,1.8,2470.868,13.28,0.038,96.0
2022-03-01T08:25:03,42.805,6.029,0.003,0.0,0.005,104.0,104.0,101.0,13.4,1505.2,328.7,-0.8,1.8,2470.862,13.28,0.003,90.0
2022-03-01T08:28:03,42.805,6.029,0.009,-0.016,0.015,104.0,105.0,101.0,13.4,1505.2,328.0,-0.8,1.8,2470.851,13.28,0.018,150.6
2022-03-01T08:31:03,42.805,6.029,0.027,-0.006,0.0,103.0,103.0,102.0,13.3,1505.2,325.6,-0.8,1.8,2470.815,13.28,0.027,102.5
2022-03-01T08:34:03,42.805,6.029,0.015,-0.023,-0.039,104.0,105.0,102.0,13.4,1505.2,325.9,-0.7,1.8,2470.854,13.28,0.027,146.9
2022-03-01T08:37:03,42.805,6.029,-0.003,-0.019,0.003,102.0,104.0,101.0,13.4,1505.2,325.0,-0.7,1.8,2470.863,13.28,0.019,189.0
2022-03-01T08:40:03,42.805,6.029,0.009,-0.014,-0.033,104.0,102.0,102.0,13.4,1505.2,323.1,-0.7,1.8,2470.862,13.28,0.016,147.3
2022-03-01T08:43:03,42.805,6.029,0.019,-0.012,-0.001,103.0,103.0,102.0,13.4,1505.2,325.1,-0.7,1.8,2470.844,13.28,0.022,122.3
2022-03-01T08:46:03,42.805,6.029,0.031,-0.015,-0.02,103.0,103.0,101.0,13.4,1505.2,323.8,-0.7,1.8,2470.878,13.28,0.034,115.8
2022-03-01T08:49:03,42.805,6.029,0.029,-0.017,-0.013,103.0,104.0,102.0,13.4,1505.2,329.2,-0.7,1.8,2470.844,13.28,0.033,120.4
2022-03-01T08:52:03,42.805,6.029,0.026,-0.009,-0.009,103.0,103.0,101.0,13.4,1505.2,324.4,-0.7,1.8,2470.818,13.28,0.027,109.1
2022-03-01T08:55:03,42.805,6.029,0.011,-0.003,-0.012,103.0,103.0,102.0,13.4,1505.2,331.4,-0.8,1.8,2470.84,13.28,0.011,105.3
2022-03-01T08:58:03,42.805,6.029,0.013,-0.04,-0.004,103.0,106.0,102.0,13.4,1505.2,327.2,-0.8,1.9,2470.856,13.28,0.042,162.0
2022-03-01T09:04:03,42.805,6.029,0.012,0.0,0.026,103.0,104.0,101.0,13.4,1505.2,327.5,-0.8,1.8,2470.88,13.28,0.012,90.0
2022-03-01T09:07:03,42.805,6.029,0.035,-0.012,-0.011,103.0,104.0,101.0,13.3,1505.2,330.1,-0.7,1.8,2470.86,13.28,0.037,108.9
2022-03-01T09:10:03,42.805,6.029,0.035,-0.005,-0.011,104.0,103.0,102.0,13.3,1505.2,323.7,-0.7,1.8,2470.878,13.28,0.035,98.1
2022-03-01T09:13:03,42.805,6.029,0.014,0.013,-0.003,104.0,102.0,102.0,13.4,1505.2,329.0,-0.8,1.8,2470.822,13.28,0.019,47.1
2022-03-01T09:16:03,42.805,6.029,0.027,-0.027,0.001,103.0,104.0,102.0,13.4,1505.2,325.9,-0.7,1.8,2470.843,13.28,0.038,135.0
2022-03-01T09:19:03,42.805,6.029,0.023,-0.01,0.009,104.0,104.0,100.0,13.3,1505.2,330.4,-0.7,1.8,2470.856,13.28,0.025,113.5
2022-03-01T09:22:03,42.805,6.029,0.0,0.0,0.024,104.0,102.0,101.0,13.4,1505.2,324.1,-0.8,1.8,2470.857,13.28,0.0,0.0
2022-03-01T09:25:03,42.805,6.029,0.019,-0.013,0.004,104.0,102.0,102.0,13.4,1505.2,329.3,-0.8,1.8,2470.794,13.28,0.023,124.4
2022-03-01T09:28:03,42.805,6.029,0.018,-0.018,-0.002,103.0,103.0,102.0,13.3,1505.2,323.7,-0.8,1.8,2470.838,13.28,0.025,135.0
2022-03-01T09:31:03,42.805,6.029,0.007,-0.03,0.001,103.0,101.0,102.0,13.4,1505.2,329.0,-0.8,1.8,2470.844,13.28,0.03,166.9
2022-03-01T09:34:03,42.805,6.029,0.026,-0.01,-0.036,103.0,103.0,101.0,13.4,1505.2,328.4,-0.7,1.8,2470.807,13.28,0.027,111.0
2022-03-01T09:37:03,42.805,6.029,0.018,0.0,-0.008,103.0,103.0,101.0,13.3,1505.2,331.7,-0.8,1.8,2470.815,13.28,0.018,90.0
2022-03-01T09:40:03,42.805,6.029,0.003,-0.005,0.013,102.0,105.0,102.0,13.4,1505.2,325.5,-0.7,1.8,2470.802,13.28,0.005,149.0
2022-03-01T09:43:03,42.805,6.029,0.018,0.002,0.024,103.0,103.0,102.0,13.4,1505.2,327.7,-0.7,1.8,2470.832,13.28,0.018,83.7
2022-03-01T09:46:03,42.805,6.029,0.036,-0.004,0.019,104.0,103.0,101.0,13.4,1505.2,328.3,-0.8,1.8,2470.825,13.28,0.036,96.3
2022-03-01T09:49:03,42.805,6.029,0.044,-0.01,0.005,103.0,105.0,101.0,13.4,1505.2,323.5,-0.7,1.8,2470.816,13.28,0.045,102.8
2022-03-01T09:52:03,42.805,6.029,0.024,-0.009,0.003,105.0,105.0,100.0,13.4,1505.2,327.4,-0.8,1.8,2470.777,13.28,0.025,110.6
2022-03-01T09:55:03,42.805,6.029,0.014,0.009,0.002,101.0,103.0,102.0,13.3,1505.2,329.8,-0.7,1.8,2470.788,13.28,0.016,57.3
2022-03-01T09:58:03,42.805,6.029,0.031,0.0,0.005,103.0,103.0,101.0,13.4,1505.2,323.5,-0.8,1.8,2470.813,13.28,0.03,90.0